EW0986 Weather Reports


Display with metric or nautical units.
time (UTC)temp
F
wind
direction
speed
MPH
gust
MPH
rain 1hr
in
rain 24hr
in
rain mn
in
humidity
%
barometer
mb
20181121193048 62 24 0.0 0.0 0.00 0.00 0.00 88 1016.0
20181121191600 63 24 0.0 0.0 0.00 0.00 0.00 88 1016.1
20181121190035 63 24 0.0 0.0 0.00 0.00 0.00 88 1015.9
20181121184610 63 319 0.0 0.0 0.00 0.00 0.00 87 1016.0
20181121183049 63 319 0.0 0.0 0.00 0.00 0.00 86 1016.3
20181121181602 64 319 0.0 0.0 0.00 0.00 0.00 85 1016.5
20181121180030 64 319 0.0 0.0 0.00 0.00 0.00 84 1016.5
20181121174524 64 319 0.0 0.0 0.00 0.00 0.00 84 1016.3
20181121173037 65 319 0.0 0.0 0.00 0.00 0.00 84 1016.2
20181121171546 65 319 0.0 0.0 0.00 0.00 0.00 83 1016.2
20181121170045 65 319 0.0 0.0 0.00 0.00 0.00 82 1016.2
20181121164536 66 319 0.0 0.0 0.00 0.00 0.00 81 1016.4
20181121163023 66 319 0.0 0.0 0.00 0.00 0.00 80 1016.3
20181121161519 67 319 0.0 0.0 0.00 0.00 0.00 79 1016.1
20181121160026 68 319 0.0 0.0 0.00 0.00 0.00 77 1016.2
20181121154523 68 319 0.0 0.0 0.00 0.00 0.00 77 1016.2
20181121153018 69 319 0.0 0.0 0.00 0.00 0.00 78 1016.3
20181121151532 69 311 0.0 1.0 0.00 0.00 0.00 77 1016.4
20181121150022 69 311 0.0 0.0 0.00 0.00 0.00 77 1016.4
20181121144525 70 310 0.0 1.0 0.00 0.00 0.00 77 1016.3
20181121143025 70 311 0.0 1.0 0.00 0.00 0.00 77 1016.3
20181121140016 71 247 0.0 2.0 0.00 0.00 0.00 76 1016.5
20181121134524 71 305 0.0 1.0 0.00 0.00 0.00 75 1016.5
20181121133016 71 311 0.0 0.0 0.00 0.00 0.00 75 1016.3
20181121131513 72 313 0.0 1.0 0.00 0.00 0.00 74 1016.1
20181121130009 72 302 0.0 1.0 0.00 0.00 0.00 73 1016.2
20181121124511 72 273 0.0 2.0 0.00 0.00 0.00 73 1016.3
20181121123032 72 336 0.0 4.0 0.00 0.00 0.00 74 1016.3
20181121121506 72 281 0.0 3.0 0.00 0.00 0.00 75 1016.6
20181121120014 72 324 0.0 2.0 0.00 0.00 0.00 76 1016.7
20181121114502 72 253 0.0 1.0 0.00 0.00 0.00 76 1016.6
20181121113235 72 285 0.0 3.0 0.00 0.00 0.00 76 1016.6
20181121111701 73 244 0.0 2.0 0.00 0.00 0.00 74 1016.6
20181121110113 73 292 0.0 3.0 0.00 0.00 0.00 72 1016.7
20181121104658 74 259 0.0 3.0 0.00 0.00 0.00 72 1016.8
20181121103140 73 257 0.0 4.0 0.00 0.00 0.00 72 1017.0
20181121101725 73 276 0.0 8.0 0.00 0.00 0.00 75 1017.3
20181121100141 73 258 1.0 7.0 0.00 0.00 0.00 77 1017.6
20181121094614 73 256 0.0 5.0 0.00 0.00 0.00 77 1017.7
20181121093123 73 246 0.0 2.0 0.00 0.00 0.00 76 1017.9
20181121091626 74 273 0.0 3.0 0.00 0.00 0.00 75 1018.1
20181121090121 74 327 0.0 4.0 0.00 0.00 0.00 76 1018.2
20181121084737 73 223 0.0 4.0 0.00 0.00 0.00 76 1018.3
20181121083110 73 221 0.0 5.0 0.00 0.00 0.00 76 1018.5
20181121081644 73 245 1.0 5.0 0.00 0.00 0.00 77 1018.5
20181121080108 72 86 0.0 3.0 0.00 0.00 0.00 82 1018.7
20181121074616 70 83 0.0 1.0 0.00 0.00 0.00 87 1018.9
20181121073051 68 90 0.0 0.0 0.00 0.00 0.00 90 1019.0
20181121071611 67 90 0.0 0.0 0.00 0.00 0.00 92 1019.0
20181121070033 66 90 0.0 0.0 0.00 0.00 0.00 93 1018.9
20181121054509 60 53 0.0 0.0 0.00 0.00 0.00 95 1018.9
20181121053138 59 53 0.0 0.0 0.00 0.00 0.00 95 1018.8
20181121051641 58 53 0.0 0.0 0.00 0.00 0.00 94 1018.7
20181121050133 57 53 0.0 0.0 0.00 0.00 0.00 94 1018.7
20181121044626 57 53 0.0 0.0 0.00 0.00 0.00 94 1018.6
20181121043206 57 53 0.0 0.0 0.00 0.00 0.00 94 1018.5
20181121041638 58 53 0.0 0.0 0.00 0.00 0.00 94 1018.4
20181121040204 58 53 0.0 0.0 0.00 0.00 0.00 94 1018.4
20181121034626 57 53 0.0 0.0 0.00 0.00 0.00 94 1018.3
20181121033203 57 53 0.0 0.0 0.00 0.00 0.00 94 1018.3
20181121031614 57 53 0.0 0.0 0.00 0.00 0.00 94 1018.2
20181121030106 57 53 0.0 0.0 0.00 0.00 0.00 94 1017.9
20181121024618 57 53 0.0 0.0 0.00 0.00 0.00 94 1017.8
20181121023103 57 53 0.0 0.0 0.00 0.00 0.00 94 1017.8
20181121021642 57 53 0.0 0.0 0.00 0.00 0.00 93 1017.7
20181121020220 58 53 0.0 0.0 0.00 0.00 0.00 94 1017.7
20181121014614 58 53 0.0 0.0 0.00 0.00 0.00 94 1017.8
20181121013109 57 53 0.0 0.0 0.00 0.00 0.00 94 1018.2
20181121011630 57 53 0.0 0.0 0.00 0.00 0.00 94 1018.2
20181121010102 57 53 0.0 0.0 0.00 0.00 0.00 93 1018.3
20181121004612 57 53 0.0 0.0 0.00 0.00 0.00 93 1018.3
20181121003106 57 53 0.0 0.0 0.00 0.00 0.00 93 1018.7
20181121001553 57 53 0.0 0.0 0.00 0.00 0.00 93 1018.7
20181121000049 58 53 0.0 0.0 0.00 0.00 0.00 93 1018.8
20181120234606 58 53 0.0 0.0 0.00 0.00 0.00 93 1018.9
20181120233116 59 53 0.0 0.0 0.00 0.00 0.00 93 1019.0
20181120231543 59 53 0.0 0.0 0.00 0.00 0.00 93 1019.0
20181120230106 59 53 0.0 0.0 0.00 0.00 0.00 93 1019.0
20181120224558 59 53 0.0 0.0 0.00 0.00 0.00 93 1019.0
20181120223033 60 53 0.0 0.0 0.00 0.00 0.00 93 1019.0
20181120221526 60 53 0.0 0.0 0.00 0.00 0.00 93 1019.0
20181120220035 61 53 0.0 0.0 0.00 0.00 0.00 93 1019.0
20181120214540 61 53 0.0 0.0 0.00 0.00 0.00 93 1019.2
20181120213032 61 53 0.0 0.0 0.00 0.00 0.00 93 1019.3
20181120211553 61 53 0.0 0.0 0.00 0.00 0.00 92 1019.2
20181120210058 61 53 0.0 0.0 0.00 0.00 0.00 93 1019.4
20181120204608 61 45 0.0 1.0 0.00 0.00 0.00 93 1019.3
20181120203129 60 312 0.0 0.0 0.00 0.00 0.00 92 1019.5
20181120201617 60 312 0.0 0.0 0.00 0.00 0.00 92 1019.8
20181120200130 60 312 0.0 0.0 0.00 0.00 0.00 91 1019.7
20181120194622 61 312 0.0 0.0 0.00 0.00 0.00 91 1019.7